#datetime,building,power
2023-09-06T00:00:00,hld,2.57
2023-09-06T00:01:00,hld,2.58
2023-09-06T00:02:00,hld,2.58
2023-09-06T00:03:00,hld,2.59
2023-09-06T00:04:00,hld,2.58
2023-09-06T00:05:00,hld,2.61
2023-09-06T00:06:00,hld,2.59
2023-09-06T00:07:00,hld,2.60
2023-09-06T00:08:00,hld,2.63
2023-09-06T00:09:00,hld,2.59
2023-09-06T00:10:00,hld,2.58
2023-09-06T00:11:00,hld,2.57
2023-09-06T00:12:00,hld,2.60
2023-09-06T00:13:00,hld,2.58
2023-09-06T00:14:00,hld,2.63
2023-09-06T00:15:00,hld,2.62
2023-09-06T00:16:00,hld,2.62
2023-09-06T00:17:00,hld,2.63
2023-09-06T00:18:00,hld,2.56
2023-09-06T00:19:00,hld,3.11
2023-09-06T00:20:00,hld,2.58
2023-09-06T00:21:00,hld,2.58
2023-09-06T00:22:00,hld,2.60
2023-09-06T00:23:00,hld,3.30
2023-09-06T00:24:00,hld,2.57
2023-09-06T00:25:00,hld,2.58
2023-09-06T00:26:00,hld,2.59
2023-09-06T00:27:00,hld,2.68
2023-09-06T00:28:00,hld,2.57
2023-09-06T00:29:00,hld,2.58
2023-09-06T00:30:00,hld,2.62
2023-09-06T00:31:00,hld,2.72
2023-09-06T00:32:00,hld,2.73
2023-09-06T00:33:00,hld,6.87
2023-09-06T00:34:00,hld,6.89
2023-09-06T00:35:00,hld,7.15
2023-09-06T00:36:00,hld,6.85
2023-09-06T00:37:00,hld,6.84
2023-09-06T00:38:00,hld,2.70
2023-09-06T00:39:00,hld,2.71
2023-09-06T00:40:00,hld,2.70
2023-09-06T00:41:00,hld,2.72
2023-09-06T00:42:00,hld,2.70
2023-09-06T00:43:00,hld,2.72
2023-09-06T00:44:00,hld,2.70
2023-09-06T00:45:00,hld,2.68
2023-09-06T00:46:00,hld,2.68
2023-09-06T00:47:00,hld,2.55
2023-09-06T00:48:00,hld,2.54
2023-09-06T00:49:00,hld,2.58
2023-09-06T00:50:00,hld,2.58
2023-09-06T00:51:00,hld,2.59
2023-09-06T00:52:00,hld,2.58
2023-09-06T00:53:00,hld,2.60
2023-09-06T00:54:00,hld,2.60
2023-09-06T00:55:00,hld,2.60
2023-09-06T00:56:00,hld,2.57
2023-09-06T00:57:00,hld,2.75
2023-09-06T00:58:00,hld,2.74
2023-09-06T00:59:00,hld,2.73
2023-09-06T01:00:00,hld,2.73
2023-09-06T01:01:00,hld,2.71
2023-09-06T01:02:00,hld,2.72
2023-09-06T01:03:00,hld,2.72
2023-09-06T01:04:00,hld,2.73
2023-09-06T01:05:00,hld,2.73
2023-09-06T01:06:00,hld,2.70
2023-09-06T01:07:00,hld,2.71
2023-09-06T01:08:00,hld,2.78
2023-09-06T01:09:00,hld,2.72
2023-09-06T01:10:00,hld,2.58
2023-09-06T01:11:00,hld,2.61
2023-09-06T01:12:00,hld,2.59
2023-09-06T01:13:00,hld,2.61
2023-09-06T01:14:00,hld,2.61
2023-09-06T01:15:00,hld,2.59
2023-09-06T01:16:00,hld,2.61
2023-09-06T01:17:00,hld,2.57
2023-09-06T01:18:00,hld,2.61
2023-09-06T01:19:00,hld,2.59
2023-09-06T01:20:00,hld,2.58
2023-09-06T01:21:00,hld,2.58
2023-09-06T01:22:00,hld,2.57
2023-09-06T01:23:00,hld,2.58
2023-09-06T01:24:00,hld,2.59
2023-09-06T01:25:00,hld,2.56
2023-09-06T01:26:00,hld,2.60
2023-09-06T01:27:00,hld,2.59
2023-09-06T01:28:00,hld,2.58
2023-09-06T01:29:00,hld,2.58
2023-09-06T01:30:00,hld,2.56
2023-09-06T01:31:00,hld,2.60
2023-09-06T01:32:00,hld,2.57
2023-09-06T01:33:00,hld,2.58
2023-09-06T01:34:00,hld,2.57
2023-09-06T01:35:00,hld,4.07
2023-09-06T01:36:00,hld,2.57
2023-09-06T01:37:00,hld,2.58
2023-09-06T01:38:00,hld,2.58
2023-09-06T01:39:00,hld,2.57
2023-09-06T01:40:00,hld,2.58
2023-09-06T01:41:00,hld,2.74
2023-09-06T01:42:00,hld,2.72
2023-09-06T01:43:00,hld,3.33
2023-09-06T01:44:00,hld,2.71
2023-09-06T01:45:00,hld,2.75
2023-09-06T01:46:00,hld,2.70
2023-09-06T01:47:00,hld,2.71
2023-09-06T01:48:00,hld,2.71
2023-09-06T01:49:00,hld,2.65
2023-09-06T01:50:00,hld,2.71
2023-09-06T01:51:00,hld,2.70
2023-09-06T01:52:00,hld,2.70
2023-09-06T01:53:00,hld,2.72
2023-09-06T01:54:00,hld,2.68
2023-09-06T01:55:00,hld,2.59
2023-09-06T01:56:00,hld,2.58
2023-09-06T01:57:00,hld,2.59
2023-09-06T01:58:00,hld,2.58
2023-09-06T01:59:00,hld,2.58
2023-09-06T02:00:00,hld,2.61
2023-09-06T02:01:00,hld,2.58
2023-09-06T02:02:00,hld,2.57
2023-09-06T02:03:00,hld,2.60
2023-09-06T02:04:00,hld,2.92
2023-09-06T02:05:00,hld,2.72
2023-09-06T02:06:00,hld,2.71
2023-09-06T02:07:00,hld,2.72
2023-09-06T02:08:00,hld,3.39
2023-09-06T02:09:00,hld,2.72
2023-09-06T02:10:00,hld,2.71
2023-09-06T02:11:00,hld,2.71
2023-09-06T02:12:00,hld,3.23
2023-09-06T02:13:00,hld,2.72
2023-09-06T02:14:00,hld,2.71
2023-09-06T02:15:00,hld,2.74
2023-09-06T02:16:00,hld,2.70
2023-09-06T02:17:00,hld,2.70
2023-09-06T02:18:00,hld,2.71
2023-09-06T02:19:00,hld,2.56
2023-09-06T02:20:00,hld,2.58
2023-09-06T02:21:00,hld,2.58
2023-09-06T02:22:00,hld,2.57
2023-09-06T02:23:00,hld,2.58
2023-09-06T02:24:00,hld,2.57
2023-09-06T02:25:00,hld,2.58
2023-09-06T02:26:00,hld,4.06
2023-09-06T02:27:00,hld,2.58
2023-09-06T02:28:00,hld,2.58
2023-09-06T02:29:00,hld,2.58
2023-09-06T02:30:00,hld,2.60
2023-09-06T02:31:00,hld,2.58
2023-09-06T02:32:00,hld,2.57
2023-09-06T02:33:00,hld,3.23
2023-09-06T02:34:00,hld,2.58
2023-09-06T02:35:00,hld,2.58
2023-09-06T02:36:00,hld,2.56
2023-09-06T02:37:00,hld,3.30
2023-09-06T02:38:00,hld,11.28
2023-09-06T02:39:00,hld,11.05
2023-09-06T02:40:00,hld,10.89
2023-09-06T02:41:00,hld,10.77
2023-09-06T02:42:00,hld,10.64
2023-09-06T02:43:00,hld,2.57
2023-09-06T02:44:00,hld,2.57
2023-09-06T02:45:00,hld,2.58
2023-09-06T02:46:00,hld,2.58
2023-09-06T02:47:00,hld,2.58
2023-09-06T02:48:00,hld,2.57
2023-09-06T02:49:00,hld,2.71
2023-09-06T02:50:00,hld,2.65
2023-09-06T02:51:00,hld,2.65
2023-09-06T02:52:00,hld,2.72
2023-09-06T02:53:00,hld,2.70
2023-09-06T02:54:00,hld,2.69
2023-09-06T02:55:00,hld,2.69
2023-09-06T02:56:00,hld,2.71
2023-09-06T02:57:00,hld,2.70
2023-09-06T02:58:00,hld,2.58
2023-09-06T02:59:00,hld,2.58
2023-09-06T03:00:00,hld,2.58
2023-09-06T03:01:00,hld,2.60
2023-09-06T03:02:00,hld,2.59
2023-09-06T03:03:00,hld,2.59
2023-09-06T03:04:00,hld,2.58
2023-09-06T03:05:00,hld,2.61
2023-09-06T03:06:00,hld,2.58
2023-09-06T03:07:00,hld,2.57
2023-09-06T03:08:00,hld,2.78
2023-09-06T03:09:00,hld,2.71
2023-09-06T03:10:00,hld,2.75
2023-09-06T03:11:00,hld,2.72
2023-09-06T03:12:00,hld,2.71
2023-09-06T03:13:00,hld,2.71
2023-09-06T03:14:00,hld,2.71
2023-09-06T03:15:00,hld,2.71
2023-09-06T03:16:00,hld,2.73
2023-09-06T03:17:00,hld,2.69
2023-09-06T03:18:00,hld,2.75
2023-09-06T03:19:00,hld,2.71
2023-09-06T03:20:00,hld,2.71
2023-09-06T03:21:00,hld,2.70
2023-09-06T03:22:00,hld,2.80
2023-09-06T03:23:00,hld,2.58
2023-09-06T03:24:00,hld,2.57
2023-09-06T03:25:00,hld,2.62
2023-09-06T03:26:00,hld,2.58
2023-09-06T03:27:00,hld,2.57
2023-09-06T03:28:00,hld,2.58
2023-09-06T03:29:00,hld,2.56
2023-09-06T03:30:00,hld,2.57
2023-09-06T03:31:00,hld,2.56
2023-09-06T03:32:00,hld,2.58
2023-09-06T03:33:00,hld,2.58
2023-09-06T03:34:00,hld,2.56
2023-09-06T03:35:00,hld,2.72
2023-09-06T03:36:00,hld,2.71
2023-09-06T03:37:00,hld,2.71
2023-09-06T03:38:00,hld,3.33
2023-09-06T03:39:00,hld,2.71
2023-09-06T03:40:00,hld,2.69
2023-09-06T03:41:00,hld,2.70
2023-09-06T03:42:00,hld,2.70
2023-09-06T03:43:00,hld,2.71
2023-09-06T03:44:00,hld,2.59
2023-09-06T03:45:00,hld,2.60
2023-09-06T03:46:00,hld,2.58
2023-09-06T03:47:00,hld,2.57
2023-09-06T03:48:00,hld,2.57
2023-09-06T03:49:00,hld,2.57
2023-09-06T03:50:00,hld,2.59
2023-09-06T03:51:00,hld,3.09
2023-09-06T03:52:00,hld,2.52
2023-09-06T03:53:00,hld,2.53
2023-09-06T03:54:00,hld,2.60
2023-09-06T03:55:00,hld,2.57
2023-09-06T03:56:00,hld,2.55
2023-09-06T03:57:00,hld,2.57
2023-09-06T03:58:00,hld,2.60
2023-09-06T03:59:00,hld,2.58
2023-09-06T04:00:00,hld,2.60
2023-09-06T04:01:00,hld,2.59
2023-09-06T04:02:00,hld,2.58
2023-09-06T04:03:00,hld,2.58
2023-09-06T04:04:00,hld,3.28
2023-09-06T04:05:00,hld,2.60
2023-09-06T04:06:00,hld,2.57
2023-09-06T04:07:00,hld,2.57
2023-09-06T04:08:00,hld,2.62
2023-09-06T04:09:00,hld,2.60
2023-09-06T04:10:00,hld,2.59
2023-09-06T04:11:00,hld,2.58
2023-09-06T04:12:00,hld,3.48
2023-09-06T04:13:00,hld,2.75
2023-09-06T04:14:00,hld,2.72
2023-09-06T04:15:00,hld,2.69
2023-09-06T04:16:00,hld,3.38
2023-09-06T04:17:00,hld,2.73
2023-09-06T04:18:00,hld,2.70
2023-09-06T04:19:00,hld,2.70
2023-09-06T04:20:00,hld,2.69
2023-09-06T04:21:00,hld,2.70
2023-09-06T04:22:00,hld,2.70
2023-09-06T04:23:00,hld,2.70
2023-09-06T04:24:00,hld,2.72
2023-09-06T04:25:00,hld,2.70
2023-09-06T04:26:00,hld,2.69
2023-09-06T04:27:00,hld,2.58
2023-09-06T04:28:00,hld,2.57
2023-09-06T04:29:00,hld,2.57
2023-09-06T04:30:00,hld,2.58
2023-09-06T04:31:00,hld,2.60
2023-09-06T04:32:00,hld,2.58
2023-09-06T04:33:00,hld,2.58
2023-09-06T04:34:00,hld,2.59
2023-09-06T04:35:00,hld,2.57
2023-09-06T04:36:00,hld,2.58
2023-09-06T04:37:00,hld,2.73
2023-09-06T04:38:00,hld,2.70
2023-09-06T04:39:00,hld,2.68
2023-09-06T04:40:00,hld,2.71
2023-09-06T04:41:00,hld,2.70
2023-09-06T04:42:00,hld,2.70
2023-09-06T04:43:00,hld,2.69
2023-09-06T04:44:00,hld,2.68
2023-09-06T04:45:00,hld,2.69
2023-09-06T04:46:00,hld,2.70
2023-09-06T04:47:00,hld,2.58
2023-09-06T04:48:00,hld,2.63
2023-09-06T04:49:00,hld,2.61
2023-09-06T04:50:00,hld,2.57
2023-09-06T04:51:00,hld,2.56
2023-09-06T04:52:00,hld,2.58
2023-09-06T04:53:00,hld,2.58
2023-09-06T04:54:00,hld,2.52
2023-09-06T04:55:00,hld,2.52
2023-09-06T04:56:00,hld,2.58
2023-09-06T04:57:00,hld,2.59
2023-09-06T04:58:00,hld,2.59
2023-09-06T04:59:00,hld,2.58
2023-09-06T05:00:00,hld,2.57
2023-09-06T05:01:00,hld,2.57
2023-09-06T05:02:00,hld,2.57
2023-09-06T05:03:00,hld,2.59
2023-09-06T05:04:00,hld,2.57
2023-09-06T05:05:00,hld,2.59
2023-09-06T05:06:00,hld,3.26
2023-09-06T05:07:00,hld,2.57
2023-09-06T05:08:00,hld,2.59
2023-09-06T05:09:00,hld,2.57
2023-09-06T05:10:00,hld,3.28
2023-09-06T05:11:00,hld,2.58
2023-09-06T05:12:00,hld,2.57
2023-09-06T05:13:00,hld,2.56
2023-09-06T05:14:00,hld,2.56
2023-09-06T05:15:00,hld,2.57
2023-09-06T05:16:00,hld,2.56
2023-09-06T05:17:00,hld,2.58
2023-09-06T05:18:00,hld,2.83
2023-09-06T05:19:00,hld,2.58
2023-09-06T05:20:00,hld,2.57
2023-09-06T05:21:00,hld,2.72
2023-09-06T05:22:00,hld,2.71
2023-09-06T05:23:00,hld,2.75
2023-09-06T05:24:00,hld,2.69
2023-09-06T05:25:00,hld,2.70
2023-09-06T05:26:00,hld,2.84
2023-09-06T05:27:00,hld,2.70
2023-09-06T05:28:00,hld,2.70
2023-09-06T05:29:00,hld,2.70
2023-09-06T05:30:00,hld,3.27
2023-09-06T05:31:00,hld,2.70
2023-09-06T05:32:00,hld,2.70
2023-09-06T05:33:00,hld,2.70
2023-09-06T05:34:00,hld,2.70
2023-09-06T05:35:00,hld,2.69
2023-09-06T05:36:00,hld,2.57
2023-09-06T05:37:00,hld,2.58
2023-09-06T05:38:00,hld,2.56
2023-09-06T05:39:00,hld,2.57
2023-09-06T05:40:00,hld,2.58
2023-09-06T05:41:00,hld,2.58
2023-09-06T05:42:00,hld,2.58
2023-09-06T05:43:00,hld,2.57
2023-09-06T05:44:00,hld,2.57
2023-09-06T05:45:00,hld,2.57
2023-09-06T05:46:00,hld,2.72
2023-09-06T05:47:00,hld,2.70
2023-09-06T05:48:00,hld,2.74
2023-09-06T05:49:00,hld,4.87
2023-09-06T05:50:00,hld,2.69
2023-09-06T05:51:00,hld,2.71
2023-09-06T05:52:00,hld,2.71
2023-09-06T05:53:00,hld,2.68
2023-09-06T05:54:00,hld,2.68
2023-09-06T05:55:00,hld,2.68
2023-09-06T05:56:00,hld,2.62
2023-09-06T05:57:00,hld,2.63
2023-09-06T05:58:00,hld,3.00
2023-09-06T05:59:00,hld,2.56
2023-09-06T06:00:00,hld,2.56
2023-09-06T06:01:00,hld,2.55
2023-09-06T06:02:00,hld,2.55
2023-09-06T06:03:00,hld,2.65
2023-09-06T06:04:00,hld,2.59
2023-09-06T06:05:00,hld,2.57
2023-09-06T06:06:00,hld,2.56
2023-09-06T06:07:00,hld,2.56
2023-09-06T06:08:00,hld,2.61
2023-09-06T06:09:00,hld,2.55
2023-09-06T06:10:00,hld,2.55
2023-09-06T06:11:00,hld,2.55
2023-09-06T06:12:00,hld,2.56
2023-09-06T06:13:00,hld,2.54
2023-09-06T06:14:00,hld,2.56
2023-09-06T06:15:00,hld,2.54
2023-09-06T06:16:00,hld,2.56
2023-09-06T06:17:00,hld,2.56
2023-09-06T06:18:00,hld,2.56
2023-09-06T06:19:00,hld,2.55
2023-09-06T06:20:00,hld,2.54
2023-09-06T06:21:00,hld,2.33
2023-09-06T06:22:00,hld,2.34
2023-09-06T06:23:00,hld,2.33
2023-09-06T06:24:00,hld,2.36
2023-09-06T06:25:00,hld,2.34
2023-09-06T06:26:00,hld,2.35
2023-09-06T06:27:00,hld,2.33
2023-09-06T06:28:00,hld,2.32
2023-09-06T06:29:00,hld,2.62
2023-09-06T06:30:00,hld,2.34
2023-09-06T06:31:00,hld,2.33
2023-09-06T06:32:00,hld,2.47
2023-09-06T06:33:00,hld,2.47
2023-09-06T06:34:00,hld,2.46
2023-09-06T06:35:00,hld,2.46
2023-09-06T06:36:00,hld,2.46
2023-09-06T06:37:00,hld,2.46
2023-09-06T06:38:00,hld,2.46
2023-09-06T06:39:00,hld,3.14
2023-09-06T06:40:00,hld,3.95
2023-09-06T06:41:00,hld,2.48
2023-09-06T06:42:00,hld,2.47
2023-09-06T06:43:00,hld,2.45
2023-09-06T06:44:00,hld,2.45
2023-09-06T06:45:00,hld,2.45
2023-09-06T06:46:00,hld,2.35
2023-09-06T06:47:00,hld,2.33
2023-09-06T06:48:00,hld,2.34
2023-09-06T06:49:00,hld,2.35
2023-09-06T06:50:00,hld,2.34
2023-09-06T06:51:00,hld,2.34
2023-09-06T06:52:00,hld,2.35
2023-09-06T06:53:00,hld,2.34
2023-09-06T06:54:00,hld,3.02
2023-09-06T06:55:00,hld,2.47
2023-09-06T06:56:00,hld,2.47
2023-09-06T06:57:00,hld,2.50
2023-09-06T06:58:00,hld,2.46
2023-09-06T06:59:00,hld,2.46
2023-09-06T07:00:00,hld,2.47
2023-09-06T07:01:00,hld,2.45
2023-09-06T07:02:00,hld,10.95
2023-09-06T07:03:00,hld,10.81
2023-09-06T07:04:00,hld,10.66
2023-09-06T07:05:00,hld,10.74
2023-09-06T07:06:00,hld,10.39
2023-09-06T07:07:00,hld,2.45
2023-09-06T07:08:00,hld,2.35
2023-09-06T07:09:00,hld,2.33
2023-09-06T07:10:00,hld,2.33
2023-09-06T07:11:00,hld,2.36
2023-09-06T07:12:00,hld,2.35
2023-09-06T07:13:00,hld,2.33
2023-09-06T07:14:00,hld,2.33
2023-09-06T07:15:00,hld,2.34
2023-09-06T07:16:00,hld,2.35
2023-09-06T07:17:00,hld,2.37
2023-09-06T07:18:00,hld,2.33
2023-09-06T07:19:00,hld,2.34
2023-09-06T07:20:00,hld,2.34
2023-09-06T07:21:00,hld,2.33
2023-09-06T07:22:00,hld,2.92
2023-09-06T07:23:00,hld,2.36
2023-09-06T07:24:00,hld,2.34
2023-09-06T07:25:00,hld,2.35
2023-09-06T07:26:00,hld,2.34
2023-09-06T07:27:00,hld,3.03
2023-09-06T07:28:00,hld,2.35
2023-09-06T07:29:00,hld,2.33
2023-09-06T07:30:00,hld,2.34
2023-09-06T07:31:00,hld,2.35
2023-09-06T07:32:00,hld,2.35
2023-09-06T07:33:00,hld,2.34
2023-09-06T07:34:00,hld,2.36
2023-09-06T07:35:00,hld,2.38
2023-09-06T07:36:00,hld,2.33
2023-09-06T07:37:00,hld,2.33
2023-09-06T07:38:00,hld,2.34
2023-09-06T07:39:00,hld,2.33
2023-09-06T07:40:00,hld,2.34
2023-09-06T07:41:00,hld,3.17
2023-09-06T07:42:00,hld,2.45
2023-09-06T07:43:00,hld,2.47
2023-09-06T07:44:00,hld,2.46
2023-09-06T07:45:00,hld,2.49
2023-09-06T07:46:00,hld,2.50
2023-09-06T07:47:00,hld,2.48
2023-09-06T07:48:00,hld,2.49
2023-09-06T07:49:00,hld,2.49
2023-09-06T07:50:00,hld,2.52
2023-09-06T07:51:00,hld,2.49
2023-09-06T07:52:00,hld,2.39
2023-09-06T07:53:00,hld,2.38
2023-09-06T07:54:00,hld,2.37
2023-09-06T07:55:00,hld,2.38
2023-09-06T07:56:00,hld,3.09
2023-09-06T07:57:00,hld,2.38
2023-09-06T07:58:00,hld,2.37
2023-09-06T07:59:00,hld,3.28
2023-09-06T08:00:00,hld,3.62
2023-09-06T08:01:00,hld,2.77
2023-09-06T08:02:00,hld,4.76
2023-09-06T08:03:00,hld,5.10
2023-09-06T08:04:00,hld,5.08
2023-09-06T08:05:00,hld,5.12
2023-09-06T08:06:00,hld,5.41
2023-09-06T08:07:00,hld,5.11
2023-09-06T08:08:00,hld,5.12
2023-09-06T08:09:00,hld,5.14
2023-09-06T08:10:00,hld,5.13
2023-09-06T08:11:00,hld,5.15
2023-09-06T08:12:00,hld,5.15
2023-09-06T08:13:00,hld,5.13
2023-09-06T08:14:00,hld,5.10
2023-09-06T08:15:00,hld,5.11
2023-09-06T08:16:00,hld,5.13
2023-09-06T08:17:00,hld,5.07
2023-09-06T08:18:00,hld,5.10
2023-09-06T08:19:00,hld,5.11
2023-09-06T08:20:00,hld,5.13
2023-09-06T08:21:00,hld,5.09
2023-09-06T08:22:00,hld,5.10
2023-09-06T08:23:00,hld,5.12
2023-09-06T08:24:00,hld,5.51
2023-09-06T08:25:00,hld,5.31
2023-09-06T08:26:00,hld,5.32
2023-09-06T08:27:00,hld,5.39
2023-09-06T08:28:00,hld,5.50
2023-09-06T08:29:00,hld,5.38
2023-09-06T08:30:00,hld,5.30
2023-09-06T08:31:00,hld,5.35
2023-09-06T08:32:00,hld,5.51
2023-09-06T08:33:00,hld,5.47
2023-09-06T08:34:00,hld,5.50
2023-09-06T08:35:00,hld,5.59
2023-09-06T08:36:00,hld,5.52
2023-09-06T08:37:00,hld,5.62
2023-09-06T08:38:00,hld,5.58
2023-09-06T08:39:00,hld,5.56
2023-09-06T08:40:00,hld,5.55
2023-09-06T08:41:00,hld,5.36
2023-09-06T08:42:00,hld,6.25
2023-09-06T08:43:00,hld,5.17
2023-09-06T08:44:00,hld,5.14
2023-09-06T08:45:00,hld,5.51
2023-09-06T08:46:00,hld,5.47
2023-09-06T08:47:00,hld,5.54
2023-09-06T08:48:00,hld,5.51
2023-09-06T08:49:00,hld,5.48
2023-09-06T08:50:00,hld,5.46
2023-09-06T08:51:00,hld,5.41
2023-09-06T08:52:00,hld,5.47
2023-09-06T08:53:00,hld,6.71
2023-09-06T08:54:00,hld,7.33
2023-09-06T08:55:00,hld,13.40
2023-09-06T08:56:00,hld,20.02
2023-09-06T08:57:00,hld,19.31
2023-09-06T08:58:00,hld,19.40
2023-09-06T08:59:00,hld,19.60
2023-09-06T09:00:00,hld,19.46
2023-09-06T09:01:00,hld,19.69
2023-09-06T09:02:00,hld,19.56
2023-09-06T09:03:00,hld,19.48
2023-09-06T09:04:00,hld,19.28
2023-09-06T09:05:00,hld,19.62
2023-09-06T09:06:00,hld,19.71
2023-09-06T09:07:00,hld,20.23
2023-09-06T09:08:00,hld,20.18
2023-09-06T09:09:00,hld,20.17
2023-09-06T09:10:00,hld,20.25
2023-09-06T09:11:00,hld,20.34
2023-09-06T09:12:00,hld,20.11
2023-09-06T09:13:00,hld,20.28
2023-09-06T09:14:00,hld,20.27
2023-09-06T09:15:00,hld,16.56
2023-09-06T09:16:00,hld,16.80
2023-09-06T09:17:00,hld,17.03
2023-09-06T09:18:00,hld,16.36
2023-09-06T09:19:00,hld,16.31
2023-09-06T09:20:00,hld,16.41
2023-09-06T09:21:00,hld,16.35
2023-09-06T09:22:00,hld,16.03
2023-09-06T09:23:00,hld,16.28
2023-09-06T09:24:00,hld,16.00
2023-09-06T09:25:00,hld,16.17
2023-09-06T09:26:00,hld,16.15
2023-09-06T09:27:00,hld,21.20
2023-09-06T09:28:00,hld,20.70
2023-09-06T09:29:00,hld,20.02
2023-09-06T09:30:00,hld,19.85
2023-09-06T09:31:00,hld,19.81
2023-09-06T09:32:00,hld,19.88
2023-09-06T09:33:00,hld,15.95
2023-09-06T09:34:00,hld,16.13
2023-09-06T09:35:00,hld,16.42
2023-09-06T09:36:00,hld,16.45
2023-09-06T09:37:00,hld,16.46
2023-09-06T09:38:00,hld,16.25
2023-09-06T09:39:00,hld,16.04
2023-09-06T09:40:00,hld,16.46
2023-09-06T09:41:00,hld,16.45
2023-09-06T09:42:00,hld,16.11
2023-09-06T09:43:00,hld,11.70
2023-09-06T09:44:00,hld,11.77
2023-09-06T09:45:00,hld,11.78
2023-09-06T09:46:00,hld,11.99
2023-09-06T09:47:00,hld,13.08
2023-09-06T09:48:00,hld,11.72
2023-09-06T09:49:00,hld,10.93
2023-09-06T09:50:00,hld,10.62
2023-09-06T09:51:00,hld,10.65
2023-09-06T09:52:00,hld,10.51
2023-09-06T09:53:00,hld,10.70
2023-09-06T09:54:00,hld,11.06
2023-09-06T09:55:00,hld,11.26
2023-09-06T09:56:00,hld,14.67
2023-09-06T09:57:00,hld,14.10
2023-09-06T09:58:00,hld,14.15
2023-09-06T09:59:00,hld,14.15
2023-09-06T10:00:00,hld,14.37
2023-09-06T10:01:00,hld,15.16
2023-09-06T10:02:00,hld,14.56
2023-09-06T10:03:00,hld,15.81
2023-09-06T10:04:00,hld,11.06
2023-09-06T10:05:00,hld,11.19
2023-09-06T10:06:00,hld,11.40
2023-09-06T10:07:00,hld,11.32
2023-09-06T10:08:00,hld,11.04
2023-09-06T10:09:00,hld,10.93
2023-09-06T10:10:00,hld,10.98
2023-09-06T10:11:00,hld,10.89
2023-09-06T10:12:00,hld,10.85
2023-09-06T10:13:00,hld,13.44
2023-09-06T10:14:00,hld,14.10
2023-09-06T10:15:00,hld,14.01
2023-09-06T10:16:00,hld,14.45
2023-09-06T10:17:00,hld,14.49
2023-09-06T10:18:00,hld,14.57
2023-09-06T10:19:00,hld,14.36
2023-09-06T10:20:00,hld,14.29
2023-09-06T10:21:00,hld,14.34
2023-09-06T10:22:00,hld,14.33
2023-09-06T10:23:00,hld,8.99
2023-09-06T10:24:00,hld,11.41
2023-09-06T10:25:00,hld,10.87
2023-09-06T10:26:00,hld,11.13
2023-09-06T10:27:00,hld,8.47
2023-09-06T10:28:00,hld,8.34
2023-09-06T10:29:00,hld,7.75
2023-09-06T10:30:00,hld,7.98
2023-09-06T10:31:00,hld,7.99
2023-09-06T10:32:00,hld,8.01
2023-09-06T10:33:00,hld,7.97
2023-09-06T10:34:00,hld,6.29
2023-09-06T10:35:00,hld,6.30
2023-09-06T10:36:00,hld,8.13
2023-09-06T10:37:00,hld,8.17
2023-09-06T10:38:00,hld,8.49
2023-09-06T10:39:00,hld,8.42
2023-09-06T10:40:00,hld,8.37
2023-09-06T10:41:00,hld,8.21
2023-09-06T10:42:00,hld,8.02
2023-09-06T10:43:00,hld,7.75
2023-09-06T10:44:00,hld,7.82
2023-09-06T10:45:00,hld,7.86
2023-09-06T10:46:00,hld,7.87
2023-09-06T10:47:00,hld,6.09
2023-09-06T10:48:00,hld,6.56
2023-09-06T10:49:00,hld,6.17
2023-09-06T10:50:00,hld,8.04
2023-09-06T10:51:00,hld,8.06
2023-09-06T10:52:00,hld,8.36
2023-09-06T10:53:00,hld,8.70
2023-09-06T10:54:00,hld,8.36
2023-09-06T10:55:00,hld,8.12
2023-09-06T10:56:00,hld,7.94
2023-09-06T10:57:00,hld,8.14
2023-09-06T10:58:00,hld,8.02
2023-09-06T10:59:00,hld,8.29
2023-09-06T11:00:00,hld,6.51
2023-09-06T11:01:00,hld,8.36
2023-09-06T11:02:00,hld,8.36
2023-09-06T11:03:00,hld,8.59
2023-09-06T11:04:00,hld,8.34
2023-09-06T11:05:00,hld,8.59
2023-09-06T11:06:00,hld,8.58
2023-09-06T11:07:00,hld,8.61
2023-09-06T11:08:00,hld,8.52
2023-09-06T11:09:00,hld,8.48
2023-09-06T11:10:00,hld,8.47
2023-09-06T11:11:00,hld,8.55
2023-09-06T11:12:00,hld,8.45
2023-09-06T11:13:00,hld,8.46
2023-09-06T11:14:00,hld,8.44
2023-09-06T11:15:00,hld,8.52
2023-09-06T11:16:00,hld,8.45
2023-09-06T11:17:00,hld,8.52
2023-09-06T11:18:00,hld,8.50
2023-09-06T11:19:00,hld,8.26
2023-09-06T11:20:00,hld,8.35
2023-09-06T11:21:00,hld,8.13
2023-09-06T11:22:00,hld,8.37
2023-09-06T11:23:00,hld,8.19
2023-09-06T11:24:00,hld,8.41
2023-09-06T11:25:00,hld,9.47
2023-09-06T11:26:00,hld,12.36
2023-09-06T11:27:00,hld,21.23
2023-09-06T11:28:00,hld,20.95
2023-09-06T11:29:00,hld,20.80
2023-09-06T11:30:00,hld,20.70
2023-09-06T11:31:00,hld,20.30
2023-09-06T11:32:00,hld,11.43
2023-09-06T11:33:00,hld,12.39
2023-09-06T11:34:00,hld,12.99
2023-09-06T11:35:00,hld,13.04
2023-09-06T11:36:00,hld,12.31
2023-09-06T11:37:00,hld,12.30
2023-09-06T11:38:00,hld,12.02
2023-09-06T11:39:00,hld,11.71
2023-09-06T11:40:00,hld,11.91
2023-09-06T11:41:00,hld,11.94
2023-09-06T11:42:00,hld,11.73
2023-09-06T11:43:00,hld,11.91
2023-09-06T11:44:00,hld,10.26
2023-09-06T11:45:00,hld,10.22
2023-09-06T11:46:00,hld,10.19
2023-09-06T11:47:00,hld,10.23
2023-09-06T11:48:00,hld,10.22
2023-09-06T11:49:00,hld,10.83
2023-09-06T11:50:00,hld,10.23
2023-09-06T11:51:00,hld,10.13
2023-09-06T11:52:00,hld,10.16
2023-09-06T11:53:00,hld,10.14
2023-09-06T11:54:00,hld,10.12
2023-09-06T11:55:00,hld,10.09
2023-09-06T11:56:00,hld,11.13
2023-09-06T11:57:00,hld,11.18
2023-09-06T11:58:00,hld,11.17
2023-09-06T11:59:00,hld,11.35
2023-09-06T12:00:00,hld,11.28
2023-09-06T12:01:00,hld,10.41
2023-09-06T12:02:00,hld,10.43
2023-09-06T12:03:00,hld,10.44
2023-09-06T12:04:00,hld,12.23
2023-09-06T12:05:00,hld,12.19
2023-09-06T12:06:00,hld,12.53
2023-09-06T12:07:00,hld,12.53
2023-09-06T12:08:00,hld,12.41
2023-09-06T12:09:00,hld,12.52
2023-09-06T12:10:00,hld,12.52
2023-09-06T12:11:00,hld,12.59
2023-09-06T12:12:00,hld,12.44
2023-09-06T12:13:00,hld,13.40
2023-09-06T12:14:00,hld,13.26
2023-09-06T12:15:00,hld,13.04
2023-09-06T12:16:00,hld,13.22
2023-09-06T12:17:00,hld,13.12
2023-09-06T12:18:00,hld,13.11
2023-09-06T12:19:00,hld,13.08
2023-09-06T12:20:00,hld,13.08
2023-09-06T12:21:00,hld,13.06
2023-09-06T12:22:00,hld,12.99
2023-09-06T12:23:00,hld,12.98
2023-09-06T12:24:00,hld,12.88
2023-09-06T12:25:00,hld,13.16
2023-09-06T12:26:00,hld,12.93
2023-09-06T12:27:00,hld,13.17
2023-09-06T12:28:00,hld,13.05
2023-09-06T12:29:00,hld,13.32
2023-09-06T12:30:00,hld,13.26
2023-09-06T12:31:00,hld,9.58
2023-09-06T12:32:00,hld,9.42
2023-09-06T12:33:00,hld,13.58
2023-09-06T12:34:00,hld,13.52
2023-09-06T12:35:00,hld,13.43
2023-09-06T12:36:00,hld,13.10
2023-09-06T12:37:00,hld,13.03
2023-09-06T12:38:00,hld,8.95
2023-09-06T12:39:00,hld,8.97
2023-09-06T12:40:00,hld,9.08
2023-09-06T12:41:00,hld,10.72
2023-09-06T12:42:00,hld,10.65
2023-09-06T12:43:00,hld,9.40
2023-09-06T12:44:00,hld,9.40
2023-09-06T12:45:00,hld,9.36
2023-09-06T12:46:00,hld,9.40
2023-09-06T12:47:00,hld,9.42
2023-09-06T12:48:00,hld,9.15
2023-09-06T12:49:00,hld,9.24
2023-09-06T12:50:00,hld,9.46
2023-09-06T12:51:00,hld,9.47
2023-09-06T12:52:00,hld,8.96
2023-09-06T12:53:00,hld,8.82
2023-09-06T12:54:00,hld,8.85
2023-09-06T12:55:00,hld,8.82
2023-09-06T12:56:00,hld,8.70
2023-09-06T12:57:00,hld,8.80
2023-09-06T12:58:00,hld,8.69
2023-09-06T12:59:00,hld,8.80
2023-09-06T13:00:00,hld,8.50
2023-09-06T13:01:00,hld,8.79
2023-09-06T13:02:00,hld,8.56
2023-09-06T13:03:00,hld,8.77
2023-09-06T13:04:00,hld,8.68
2023-09-06T13:05:00,hld,8.84
2023-09-06T13:06:00,hld,8.33
2023-09-06T13:07:00,hld,8.50
2023-09-06T13:08:00,hld,8.33
2023-09-06T13:09:00,hld,8.50
2023-09-06T13:10:00,hld,8.23
2023-09-06T13:11:00,hld,8.42
2023-09-06T13:12:00,hld,8.86
2023-09-06T13:13:00,hld,8.71
2023-09-06T13:14:00,hld,8.73
2023-09-06T13:15:00,hld,8.67
2023-09-06T13:16:00,hld,8.29
2023-09-06T13:17:00,hld,8.35
2023-09-06T13:18:00,hld,8.38
2023-09-06T13:19:00,hld,8.55
2023-09-06T13:20:00,hld,8.32
2023-09-06T13:21:00,hld,8.15
2023-09-06T13:22:00,hld,8.85
2023-09-06T13:23:00,hld,8.69
2023-09-06T13:24:00,hld,8.71
2023-09-06T13:25:00,hld,8.71
2023-09-06T13:26:00,hld,8.74
2023-09-06T13:27:00,hld,8.36
2023-09-06T13:28:00,hld,8.46
2023-09-06T13:29:00,hld,8.32
2023-09-06T13:30:00,hld,8.54
2023-09-06T13:31:00,hld,8.31
2023-09-06T13:32:00,hld,8.49
2023-09-06T13:33:00,hld,8.59
2023-09-06T13:34:00,hld,8.86
2023-09-06T13:35:00,hld,8.88
2023-09-06T13:36:00,hld,8.76
2023-09-06T13:37:00,hld,8.77
2023-09-06T13:38:00,hld,9.98
2023-09-06T13:39:00,hld,12.59